Weather History for Blair, NE

Change the Weather History Date:

Tuesday, January 14, 2014

  Actual Average (KOMA) Record (KOMA)
Temperature  
Mean Temperature 31 °F 23 °F  
Max Temperature 45 °F 33 °F 57 °F (1914)
Min Temperature 16 °F 13 °F -21 °F (1888)
Degree Days  
Heating Degree Days 34 42  
Month to date heating degree days 588  
Since 1 July heating degree days 3067  
Cooling Degree Days 0 0  
Month to date cooling degree days 0  
Year to date cooling degree days 0  
Moisture  
Dew Point 18 °F    
Average Humidity 57    
Maximum Humidity 73    
Minimum Humidity 37    
Precipitation  
Precipitation 0.00 in 0.02 in 0.65 in (1932)
Month to date precipitation 0.31  
Year to date precipitation 0.31  
Snow  
Snow 0.00 in 0.20 in - ()
Month to date snowfall 2.7  
Since 1 July snowfall 11.7  
Snow Depth -    
Sea Level Pressure  
Sea Level Pressure 30.00 in    
Wind  
Wind Speed 17 mph (NW)    
Max Wind Speed 32 mph    
Max Gust Speed 45 mph    
Visibility 10 miles    
Events      
T = Trace of Precipitation, MM = Missing Value Source: NWS Daily Summary

Daily Weather History Graph

Daily Weather History Graph

Search for Another Location

Airport:

Trip Planner

Search our weather history database for the weather conditions in past years. The results will help you decide how hot, cold, wet, or windy it might be!

Date:

Astronomy

Jan. 14, 2014 Rise Set
Actual Time 7:48 AM CST 5:18 PM CST
Civil Twilight 7:18 AM CST 5:49 PM CST
Nautical Twilight 6:43 AM CST 6:23 PM CST
Astronomical Twilight 6:10 AM CST 6:56 PM CST
Moon 4:25 PM CST (1/14) 6:23 AM CST (1/14)
Length of Visible Light 10h 31m
Length of Day
9h 30m
Waxing Gibbous, 98% of the Moon is Illuminated
Jan 14
Waxing Gibbous
Jan 15
Full
Jan 23
Last Quarter
Jan 30
New
Feb 6
First Quarter

Hourly Weather History & Observations

Time (CST) Temp. Windchill Dew Point Humidity Pressure Visibility Wind Dir Wind Speed Gust Speed Precip Events Conditions
12:15 AM 37.2 °F 32.6 °F 29.3 °F 73% 29.64 in 10.0 mi SSW 5.8 mph - N/A   Scattered Clouds
12:35 AM 37.2 °F 31.9 °F 29.3 °F 73% 29.63 in 10.0 mi SSW 6.9 mph - N/A   Mostly Cloudy
12:55 AM 37.9 °F 33.5 °F 29.3 °F 71% 29.64 in 10.0 mi SSW 5.8 mph - N/A   Overcast
1:15 AM 39.2 °F 34.2 °F 28.8 °F 66% 29.64 in 10.0 mi SW 6.9 mph - N/A   Mostly Cloudy
1:35 AM 40.1 °F 33.2 °F 30.2 °F 68% 29.64 in 10.0 mi WSW 11.5 mph 18.4 mph N/A   Overcast
1:55 AM 43.2 °F 37.0 °F 32.4 °F 66% 29.65 in 10.0 mi West 11.5 mph 17.3 mph N/A   Overcast
2:15 AM 45.7 °F 38.6 °F 34.0 °F 64% 29.65 in 10.0 mi West 17.3 mph 24.2 mph N/A   Overcast
2:35 AM 45.0 °F 38.9 °F 33.3 °F 64% 29.66 in 10.0 mi West 12.7 mph 21.9 mph N/A   Mostly Cloudy
2:55 AM 44.8 °F 37.1 °F 34.0 °F 66% 29.68 in 10.0 mi WNW 18.4 mph 25.3 mph N/A   Mostly Cloudy
3:15 AM 45.1 °F 36.4 °F 33.3 °F 63% 29.71 in 10.0 mi NW 24.2 mph 35.7 mph N/A   Overcast
3:35 AM 43.9 °F 34.1 °F 32.7 °F 65% 29.73 in 10.0 mi NW 27.6 mph 36.8 mph N/A   Overcast
3:55 AM 42.6 °F 33.1 °F 32.0 °F 66% 29.75 in 10.0 mi NW 24.2 mph 34.5 mph N/A   Overcast
4:15 AM 41.2 °F 32.1 °F 31.5 °F 68% 29.77 in 10.0 mi NNW 19.6 mph 31.1 mph N/A   Overcast
4:35 AM 40.6 °F 29.0 °F 29.8 °F 65% 29.79 in 10.0 mi NNW 32.2 mph 40.3 mph N/A   Overcast
4:55 AM 40.1 °F 29.0 °F 29.1 °F 65% 29.81 in 10.0 mi NW 27.6 mph 35.7 mph N/A   Overcast
5:15 AM 38.5 °F 26.0 °F 26.1 °F 61% 29.81 in 10.0 mi NNW 32.2 mph 42.6 mph N/A   Mostly Cloudy
5:35 AM 37.8 °F 27.7 °F 26.8 °F 65% 29.84 in 10.0 mi NW 19.6 mph 26.5 mph N/A   Mostly Cloudy
5:55 AM 37.4 °F 27.5 °F 26.4 °F 65% 29.85 in 10.0 mi NW 18.4 mph 28.8 mph N/A   Mostly Cloudy
6:15 AM 37.0 °F 27.4 °F 26.4 °F 65% 29.87 in 10.0 mi NW 17.3 mph 27.6 mph N/A   Overcast
6:35 AM 36.5 °F 27.0 °F 26.6 °F 67% 29.88 in 10.0 mi NW 16.1 mph - N/A   Overcast
6:55 AM 35.8 °F 28.3 °F 26.6 °F 69% 29.89 in 10.0 mi NW 10.4 mph - N/A   Overcast
7:15 AM 34.7 °F 24.3 °F 24.8 °F 67% 29.91 in 10.0 mi NW 17.3 mph 26.5 mph N/A   Mostly Cloudy
7:35 AM 33.6 °F 21.3 °F 23.5 °F 67% 29.93 in 10.0 mi NNW 23.0 mph 35.7 mph N/A   Scattered Clouds
7:55 AM 32.5 °F 20.5 °F 22.1 °F 65% 29.94 in 10.0 mi NW 20.7 mph 31.1 mph N/A   Scattered Clouds
8:15 AM 32.7 °F 21.4 °F 21.9 °F 64% 29.96 in 10.0 mi NW 18.4 mph 26.5 mph N/A   Overcast
8:35 AM 32.0 °F 22.1 °F 21.9 °F 66% 29.97 in 10.0 mi NW 13.8 mph 24.2 mph N/A   Overcast
8:55 AM 32.0 °F 20.1 °F 21.7 °F 66% 29.98 in 10.0 mi NW 19.6 mph 25.3 mph N/A   Scattered Clouds
9:15 AM 32.4 °F 20.9 °F 21.2 °F 63% 30.00 in 10.0 mi NW 18.4 mph 28.8 mph N/A   Scattered Clouds
9:35 AM 32.9 °F 21.6 °F 21.0 °F 62% 30.01 in 10.0 mi NW 18.4 mph 28.8 mph N/A   Mostly Cloudy
9:55 AM 32.0 °F 19.5 °F 18.0 °F 56% 30.02 in 10.0 mi NW 21.9 mph 35.7 mph N/A   Scattered Clouds
10:15 AM 32.0 °F 18.4 °F 17.8 °F 56% 30.03 in 10.0 mi NW 26.5 mph 41.4 mph N/A   Scattered Clouds
10:35 AM 32.2 °F 18.4 °F 17.2 °F 54% 30.04 in 10.0 mi NW 27.6 mph 39.1 mph N/A   Scattered Clouds
10:55 AM 32.2 °F 18.1 °F 16.5 °F 53% 30.04 in 10.0 mi NW 28.8 mph 40.3 mph N/A   Scattered Clouds
11:15 AM 32.5 °F 18.4 °F 15.1 °F 49% 30.05 in 10.0 mi NW 29.9 mph 38.0 mph N/A   Clear
11:35 AM 33.1 °F 18.9 °F 15.6 °F 49% 30.05 in 10.0 mi NNW 31.1 mph 40.3 mph N/A   Clear
11:55 AM 32.9 °F 18.9 °F 12.7 °F 43% 30.04 in 10.0 mi NW 29.9 mph 44.9 mph N/A   Clear
12:15 PM 33.3 °F 19.3 °F 12.6 °F 42% 30.04 in 10.0 mi NW 29.9 mph 42.6 mph N/A   Clear
12:35 PM 34.0 °F 20.1 °F 12.2 °F 41% 30.04 in 10.0 mi NW 31.1 mph 41.4 mph N/A   Clear
12:55 PM 34.3 °F 21.3 °F 10.4 °F 37% 30.05 in 10.0 mi NW 27.6 mph 41.4 mph N/A   Clear
1:15 PM 34.2 °F 21.8 °F 11.8 °F 40% 30.06 in 10.0 mi NW 24.2 mph 36.8 mph N/A   Scattered Clouds
1:35 PM 34.0 °F 21.3 °F 10.2 °F 37% 30.06 in 10.0 mi NW 25.3 mph 41.4 mph N/A   Scattered Clouds
1:55 PM 33.3 °F 20.3 °F 9.9 °F 38% 30.07 in 10.0 mi NW 25.3 mph 36.8 mph N/A   Scattered Clouds
2:15 PM 32.0 °F 18.1 °F 10.2 °F 40% 30.08 in 10.0 mi NW 27.6 mph 42.6 mph N/A   Clear
2:35 PM 32.2 °F 17.9 °F 10.4 °F 40% 30.09 in 10.0 mi NW 29.9 mph 41.4 mph N/A   Clear
2:55 PM 31.8 °F 19.6 °F 10.0 °F 40% 30.11 in 10.0 mi NW 20.7 mph 39.1 mph N/A   Scattered Clouds
3:15 PM 31.3 °F 16.7 °F 9.9 °F 41% 30.12 in 10.0 mi NW 29.9 mph 36.8 mph N/A   Mostly Cloudy
3:35 PM 30.9 °F 15.7 °F 9.1 °F 40% 30.13 in 10.0 mi NW 32.2 mph 39.1 mph N/A   Mostly Cloudy
3:55 PM 31.1 °F 18.6 °F 9.9 °F 41% 30.15 in 10.0 mi NW 20.7 mph 32.2 mph N/A   Mostly Cloudy
4:15 PM 29.8 °F 16.3 °F 9.7 °F 43% 30.15 in 10.0 mi NW 23.0 mph 40.3 mph N/A   Scattered Clouds
4:35 PM 29.3 °F 15.0 °F 9.5 °F 44% 30.16 in 10.0 mi NW 25.3 mph 34.5 mph N/A   Clear
4:55 PM 28.9 °F 17.7 °F 10.0 °F 45% 30.16 in 10.0 mi NNW 15.0 mph 26.5 mph N/A   Clear
5:15 PM 28.0 °F 16.5 °F 10.0 °F 47% 30.16 in 10.0 mi NW 15.0 mph 25.3 mph N/A   Clear
5:35 PM 27.3 °F 15.6 °F 10.2 °F 49% 30.16 in 10.0 mi NNW 15.0 mph 19.6 mph N/A   Clear
5:55 PM 26.4 °F 16.0 °F 10.2 °F 51% 30.17 in 10.0 mi NNW 11.5 mph - N/A   Clear
6:15 PM 25.7 °F 16.4 °F 10.0 °F 52% 30.17 in 10.0 mi NNW 9.2 mph - N/A   Clear
6:35 PM 25.2 °F 15.1 °F 9.5 °F 52% 30.17 in 10.0 mi NW 10.4 mph - N/A   Clear
6:55 PM 25.3 °F 14.1 °F 9.3 °F 51% 30.18 in 10.0 mi NNW 12.7 mph - N/A   Scattered Clouds
7:15 PM 25.7 °F 13.5 °F 9.5 °F 50% 30.19 in 10.0 mi NNW 15.0 mph 20.7 mph N/A   Mostly Cloudy
7:35 PM 25.5 °F 14.3 °F 10.4 °F 53% 30.19 in 10.0 mi NNW 12.7 mph 20.7 mph N/A   Mostly Cloudy
7:55 PM 24.6 °F 12.2 °F 10.8 °F 56% 30.18 in 10.0 mi NNW 15.0 mph 24.2 mph N/A   Mostly Cloudy
8:15 PM 23.7 °F 11.5 °F 10.9 °F 58% 30.18 in 10.0 mi NNW 13.8 mph - N/A   Scattered Clouds
8:35 PM 22.6 °F 10.7 °F 11.1 °F 61% 30.18 in 10.0 mi NNW 12.7 mph - N/A   Clear
8:55 PM 22.8 °F 9.9 °F 11.3 °F 61% 30.19 in 10.0 mi NNW 15.0 mph 25.3 mph N/A   Clear
9:15 PM 22.1 °F 8.0 °F 11.3 °F 63% 30.19 in 10.0 mi NNW 17.3 mph 24.2 mph N/A   Clear
9:35 PM 21.4 °F 9.1 °F 11.3 °F 65% 30.20 in 10.0 mi NNW 12.7 mph - N/A   Clear
9:55 PM 20.8 °F 8.4 °F 10.9 °F 66% 30.20 in 10.0 mi NNW 12.7 mph 18.4 mph N/A   Clear
10:15 PM 20.1 °F 6.9 °F 10.8 °F 67% 30.20 in 10.0 mi NNW 13.8 mph 20.7 mph N/A   Clear
10:35 PM 19.4 °F 5.5 °F 10.4 °F 68% 30.20 in 10.0 mi NNW 15.0 mph - N/A   Clear
10:55 PM 19.2 °F 5.3 °F 9.9 °F 67% 30.20 in 10.0 mi NW 15.0 mph 21.9 mph N/A   Clear
11:15 PM 18.5 °F 4.3 °F 9.5 °F 68% 30.20 in 10.0 mi NNW 15.0 mph - N/A   Clear
11:35 PM 17.8 °F 4.0 °F 9.3 °F 69% 30.21 in 10.0 mi NW 13.8 mph 18.4 mph N/A   Clear
11:55 PM 16.9 °F 4.8 °F 8.8 °F 71% 30.21 in 10.0 mi NW 10.4 mph - N/A   Clear